Regional Weather Roundup
Issued by NWS

Home | Current Version | Previous Version | Graphics & Text | Print | Product List | Glossary On
Versions: 1 2 3 4 5 6 7 8 9 10 11 12 13 14 15 16 17 18 19 20 21 22 23 24 25 26 27 28 29 30 31 32 33 34 35 36 37 38 39 40 41 42 43 44 45 46 47 48 49 50
000
ASUS43 KFSD 261002
RWRSD

WEATHER ROUNDUP FOR SOUTH DAKOTA
NATIONAL WEATHER SERVICE SIOUX FALLS SD
500 AM CDT FRI MAY 26 2017

NOTE: "FAIR" INDICATES FEW OR NO CLOUDS BELOW 12,000 FEET WITH NO
SIGNIFICANT WEATHER AND/OR OBSTRUCTIONS TO VISIBILITY.


SDZ001>005-009-010-012>017-261100-
NORTHWEST AND NORTH CENTRAL SOUTH DAKOTA

CITY           SKY/WX    TMP DP  RH WIND       PRES   REMARKS
BUFFALO          N/A     46  37  71 NW17      29.76R
FAITH            N/A     45  40  82 W13       29.80R
MOBRIDGE       PTCLDY    48  41  76 NW9       29.72R
$$

SDZ012>016-024>037-041>051-057-063-072>074-261100-
SOUTHWEST AND SOUTH CENTRAL SOUTH DAKOTA

CITY           SKY/WX    TMP DP  RH WIND       PRES   REMARKS
RAPID CTY ARPT CLEAR     38  32  79 CALM      29.88R
PIERRE         CLEAR     51  41  68 NW14      29.77R
CUSTER         PTCLDY    41  28  60 NW9G18    29.90S
ELLSWORTH AFB  CLEAR     45  35  68 W12       29.87R
PHILIP         PTCLDY    44  40  85 W10       29.85R
PINE RIDGE     PTCLDY    42  40  92 CALM      29.89S
WINNER         FAIR      52  43  71 W12       29.81R
$$

SDZ004>011-016>023-039-040-261100-
NORTHEAST SOUTH DAKOTA

CITY           SKY/WX    TMP DP  RH WIND       PRES   REMARKS
ABERDEEN       PTCLDY    51  43  74 W12       29.70R
WATERTOWN      CLOUDY    52  47  83 W10       29.68S
BROOKINGS      CLOUDY    49  48  97 W5        29.69R
SISSETON         N/A     56  48  74 NW12      29.65R
$$

SDZ017-020-022-023-036>040-048>070-261100-
SOUTHEAST SOUTH DAKOTA

CITY           SKY/WX    TMP DP  RH WIND       PRES   REMARKS
SIOUX FALLS    CLOUDY    52  50  93 CALM      29.68R
HURON          PTCLDY    49  46  90 W7        29.73R
MITCHELL       CLOUDY    54  47  77 NW12      29.73R
YANKTON        CLOUDY    57  47  69 NW18G25   29.70R
$$

ABBREVIATIONS USED IN REMARKS
   TC - TEMPERATURE IN CELSIUS
  WCI - WIND CHILL INDEX
   HX - HEAT INDEX
  VSB - VISIBILITY





USA.gov is the U.S. government's official web portal to all federal, state and local government web resources and services.